Location: San Vito
(41.8833°N, 12.9833°E)
Time: 21:21:13
(UTC+00:00)

COSMOS 2487 - Pass Details

Date: 17 November 2019
Orbit: 443 x 448 km, 74.7° (Epoch: 11 December)

Event Time Altitude Azimuth Distance (km) Brightness Sun altitude
Rises 04:40:18 0° 198° (SSW) 2,423 6.1 -14.8°
Reaches altitude 10° 04:42:21 10° 199° (SSW) 1,558 5.1 -14.4°
Maximum altitude 04:45:47 87° 285° (WNW) 450 2.3 -13.8°
Drops below altitude 10° 04:49:15 10° 18° (NNE) 1,572 5.2 -13.2°
Sets 04:51:20 0° 19° (NNE) 2,448 6.2 -12.8°
